Voltar ao catálogo

STARLINK-32625

AtivoComunicaçõesVLEO
NORAD 62154·PAYLOAD·🇺🇸 United States

Lançado Nov 30, 2024 de Cape Canaveral Space Force Station

Loading…

Próximas Passagens (próximas 24 horas)

TLE

AtualizadoSource: CelesTrak SupGP

Época: Sep 14, 2026, 21:44 UTC

1 62154C 24224R   26257.90604167 -.00052796  00000+0 -19119-2 0  2577
2 62154  43.0004 169.8104 0001347 263.7938 134.4619 15.27611611    13

Acompanhe STARLINK-32625 em tempo real com AllMySat

Download on the App Store